O3B FM10                
1 40348U 14083A   19263.70627676 -.00000019  00000-0  00000-0 0  9998
2 40348   0.0489   6.5062 0002606 173.3696 180.1289  5.00115287 86912
O3B FM11                
1 40349U 14083B   19265.91854722 -.00000019  00000-0  00000+0 0  9997
2 40349   0.0482   1.1090 0001914 174.1556 184.7416  5.00115869 87024
O3B FM12                
1 40350U 14083C   19263.58720749 -.00000019  00000-0  00000-0 0  9992
2 40350   0.0475   1.8939 0002497 172.6946 185.4189  5.00115555 86914
O3B FM9                 
1 40351U 14083D   19263.57305427 -.00000019  00000-0  00000-0 0  9994
2 40351   0.0486 359.6405 0002550 179.9909 180.3733  5.00115215 86921
FREGAT R/B              
1 40352U 14083E   19265.45059560 -.00000016  00000-0  00000+0 0  9994
2 40352   0.0652 271.1635 0007737 353.6887  95.0637  5.20670897 90562